Regional Weather Roundup
Issued by NWS

Home | Current Version | Previous Version | Text Only | Print | Product List | Glossary Off
Versions: 1 2 3 4 5 6 7 8 9 10 11 12 13 14 15 16 17 18 19 20 21 22 23 24 25 26 27 28 29 30 31 32 33 34 35 36 37 38 39 40 41 42 43 44 45 46 47 48 49 50

000
ASUS43 KBIS 242210
RWRND

NORTH DAKOTA REGIONAL WEATHER ROUNDUP
NATIONAL WEATHER SERVICE BISMARCK ND
500 PM CDT FRI MAR 24 2017

NOTE: "FAIR" INDICATES FEW OR NO CLOUDS BELOW 12,000 FEET WITH NO
SIGNIFICANT WEATHER AND/OR OBSTRUCTIONS TO VISIBILITY.


NDZ001>003-009>011-017-242300-
NORTHWEST NORTH DAKOTA

CITY           SKY/WX    TMP DP  RH WIND       PRES   REMARKS
WILLISTON      FAIR      59  32  36 SE13G22   30.01F
MINOT          FAIR      41  30  65 E13       30.14F
MINOT AFB      SUNNY     37  29  74 SE15      30.13F
$$

NDZ018>021-031>035-040>046-242300-
SOUTHWEST NORTH DAKOTA

CITY           SKY/WX    TMP DP  RH WIND       PRES   REMARKS
BISMARCK       FAIR      47  34  60 E12       30.15F
DICKINSON      FAIR      57  33  40 SE10      30.03F
GARRISON         N/A     42  32  67 E13       30.12F
HETTINGER ARPT SUNNY     58  34  40 SE9       30.07F
$$

NDZ004>008-012>016-024-026-027-054-242300-
NORTHEAST NORTH DAKOTA

CITY           SKY/WX    TMP DP  RH WIND       PRES   REMARKS
GRAND FORKS    CLOUDY    36  28  73 N9        30.22F
GRND FRKS AFB  CLOUDY    34  28  77 NE8       30.22F
DEVILS LAKE    CLOUDY    33  26  75 NE8       30.21S
$$

NDZ022-023-025-028>030-036>039-047>053-242300-
SOUTHEAST NORTH DAKOTA

CITY           SKY/WX    TMP DP  RH WIND       PRES   REMARKS
FARGO          CLOUDY    38  32  79 N17       30.19R
JAMESTOWN      CLOUDY    35  29  78 N10       30.18S
$$





USA.gov is the U.S. government's official web portal to all federal, state and local government web resources and services.